{"data":{"norad_id":63509,"epoch":"2026-05-24T17:11:58.890912Z","epoch_age_seconds":106755,"freshness":"FRESH","line1":"1 63509U 25071S   26144.71665383  .00015204  00000+0  50041-3 0  9998","line2":"2 63509  53.1590 146.4868 0001306  91.2863 268.8288 15.31719556 64144","mean_motion":15.31719556,"eccentricity":0.0001306,"inclination_deg":53.159,"raan_deg":146.4868,"arg_perigee_deg":91.2863,"mean_anomaly_deg":268.8288,"bstar":0.00050041,"rev_number":6414,"period_min":94.011987661794,"perigee_km":469.78724470522,"apogee_km":471.57615614977,"semimajor_km":6848.8187004275,"source":"CELESTRAK","updated_at":"2026-05-25T13:38:20.015202Z"}}